Weather History for Minneapolis Flying Cloud, MN

Change the Weather History Date:

Saturday, October 11, 2014

  Actual Average Record
Temperature  
Mean Temperature 44 °F -  
Max Temperature 57 °F 59 °F 80 °F (2010)
Min Temperature 30 °F 39 °F 28 °F (2006)
Degree Days  
Heating Degree Days 22    
Moisture  
Dew Point 32 °F    
Average Humidity 74    
Maximum Humidity 100    
Minimum Humidity 37    
Precipitation  
Precipitation 0.00 in - - ()
Sea Level Pressure  
Sea Level Pressure 30.18 in    
Wind  
Wind Speed 2 mph (South)    
Max Wind Speed 10 mph    
Max Gust Speed -    
Visibility 7 miles    
Events Fog    
Averages and records for this station are not official NWS values.
T = Trace of Precipitation, MM = Missing Value Source: NWS Daily Summary

Daily Weather History Graph

Daily Weather History Graph

Search for Another Location

Airport:

Trip Planner

Search our weather history database for the weather conditions in past years. The results will help you decide how hot, cold, wet, or windy it might be!

Date:

Astronomy

Oct. 11, 2014 Rise Set
Actual Time 7:24 AM CDT 6:36 PM CDT
Civil Twilight 6:54 AM CDT 7:05 PM CDT
Nautical Twilight 6:21 AM CDT 7:39 PM CDT
Astronomical Twilight 5:47 AM CDT 8:13 PM CDT
Moon 8:56 PM CDT (10/11) 10:56 AM CDT (10/11)
Length of Visible Light 12h 10m
Length of Day
11h 11m
Waning Gibbous, 87% of the Moon is Illuminated
Oct 11
Waning Gibbous
Oct 15
Last Quarter
Oct 23
New
Oct 30
First Quarter
Nov 6
Full

Hourly Weather History & Observations

Time (CDT) Temp. Windchill Dew Point Humidity Pressure Visibility Wind Dir Wind Speed Gust Speed Precip Events Conditions
12:53 AM 37.0 °F - 32.0 °F 82% 30.24 in 10.0 mi Calm Calm - N/A   Clear
1:53 AM 35.1 °F - 32.0 °F 89% 30.25 in 10.0 mi Calm Calm - N/A   Clear
2:53 AM 34.0 °F - 30.9 °F 89% 30.24 in 10.0 mi Calm Calm - N/A   Clear
3:53 AM 34.0 °F - 30.9 °F 89% 30.23 in 10.0 mi Calm Calm - N/A   Clear
4:53 AM 33.1 °F - 30.0 °F 89% 30.23 in 10.0 mi Calm Calm - N/A   Clear
5:53 AM 32.0 °F - 30.9 °F 96% 30.23 in 6.0 mi Calm Calm - N/A   Clear
6:07 AM 32.0 °F - 30.0 °F 92% 30.21 in 1.2 mi Calm Calm - N/A   Clear
6:19 AM 30.0 °F 26.5 °F 30.0 °F 100% 30.21 in 4.0 mi SSW 3.5 mph - N/A   Clear
6:28 AM 30.9 °F - 30.0 °F 96% 30.22 in 1.8 mi Calm Calm - N/A   Clear
6:40 AM 30.9 °F - 28.9 °F 92% 30.22 in 0.5 mi Calm Calm - N/A Fog Light Freezing Fog
6:53 AM 30.9 °F - 28.9 °F 92% 30.24 in 0.5 mi Calm Calm - N/A Fog Light Freezing Fog
7:04 AM 30.9 °F - 28.9 °F 92% 30.22 in 2.5 mi Calm Calm - N/A   Clear
7:12 AM 30.9 °F - 28.9 °F 92% 30.22 in 4.0 mi Calm Calm - N/A   Clear
7:43 AM 30.9 °F - 28.9 °F 92% 30.23 in 2.5 mi Calm Calm - N/A   Clear
7:51 AM 30.2 °F - 30.2 °F 100% 30.23 in 3.0 mi Calm Calm - N/A   Clear
7:53 AM 30.9 °F - 28.9 °F 92% 30.25 in 3.0 mi Calm Calm - N/A   Clear
8:53 AM 35.1 °F - 33.1 °F 92% 30.27 in 8.0 mi Calm Calm - N/A   Clear
9:53 AM 43.0 °F 41.3 °F 36.0 °F 76% 30.27 in 10.0 mi South 3.5 mph - N/A   Clear
10:53 AM 48.0 °F - 35.1 °F 61% 30.27 in 10.0 mi SSW 4.6 mph - N/A   Clear
11:53 AM 52.0 °F - 34.0 °F 50% 30.25 in 10.0 mi South 5.8 mph - N/A   Clear
12:53 PM 54.0 °F - 33.1 °F 45% 30.22 in 10.0 mi SSE 5.8 mph - N/A   Clear
1:53 PM 55.9 °F - 33.1 °F 42% 30.19 in 10.0 mi South 8.1 mph - N/A   Clear
2:53 PM 57.9 °F - 33.1 °F 39% 30.15 in 10.0 mi SSE 9.2 mph - N/A   Clear
3:53 PM 57.9 °F - 32.0 °F 37% 30.12 in 10.0 mi SSW 10.4 mph - N/A   Clear
4:53 PM 57.9 °F - 32.0 °F 37% 30.09 in 10.0 mi SSE 10.4 mph - N/A   Clear
5:53 PM 55.0 °F - 32.0 °F 42% 30.08 in 10.0 mi South 6.9 mph - N/A   Clear
6:53 PM 51.1 °F - 32.0 °F 48% 30.07 in 10.0 mi South 6.9 mph - N/A   Clear
7:53 PM 46.9 °F - 33.1 °F 59% 30.06 in 10.0 mi SSE 6.9 mph - N/A   Clear
8:53 PM 44.1 °F 39.5 °F 33.1 °F 65% 30.05 in 10.0 mi SSE 8.1 mph - N/A   Clear
9:53 PM 44.1 °F 39.5 °F 33.1 °F 65% 30.03 in 10.0 mi SSE 8.1 mph - N/A   Clear
10:53 PM 43.0 °F 37.7 °F 33.1 °F 68% 30.01 in 10.0 mi SSE 9.2 mph - N/A   Clear
11:53 PM 42.1 °F 37.1 °F 33.1 °F 70% 29.99 in 10.0 mi SE 8.1 mph - N/A   Clear